Погода в Семеновке

Украина / Полтавская область     49°42′33″N   33°33′14″E
темп.,
°C
ветер,
м/с
пор.,
м/с
влажн.,
%
обл.,
%
осадки,
мм/ч
давл.,
гПа
погр.,
м
20 апреля, вт
вт2000:00+8ссв227279 0.0 101321
03:00+8св2375100 0.0 101252
06:00+7ссв3582100 0.0 1010150
09:00+8ссв3683100 0.1 1009233
12:00+13ссв4460100 0.2 10071223
15:00+12ссв5567100 0.6 10061003
18:00+11с5675100 0.1 1005784
21:00+9ссз4888100 0.3 1005333
21 апреля, ср
ср2100:00+8зсз4892100 0.9 1006336
03:00+7зсз6992100 0.9 1007468
06:00+5з510926 0.0 1009453
09:00+8з7107674 0.0 1011904
12:00+11з686090 0.2 10121494
15:00+11з586366 1.0 10131177
18:00+12з475710 0.6 10141488
21:00+8юз22705 0.6 101621
22 апреля, чт
чт2200:00+7юз337914 0.0 101643
03:00+6ююз34835 0.0 101763
06:00+6ююз3688100 0.1 101898
09:00+12юз576672 0.1 1018445
12:00+15ююз675210 0.0 10191087
15:00+17ююз6843100 0.0 10182275
18:00+15ююз4854100 0.0 1017360
21:00+12ю4106315 0.0 1018197
23 апреля, пт
пт2300:00+10ю4117310 0.0 1018190
03:00+9ю4118212 0.0 1017223
06:00+7ю512865 0.0 1017267
09:00+12ю7107186 0.1 1016540
12:00+16ююз812565 0.7 10151596
15:00+16ююз101258100 3.6 10141769
18:00+10сз4591100 6.7 1013454
21:00+6сз5890100 14.8 1016481
24 апреля, сб
сб2400:00+5сз3787100 0.4 1016357
03:00+3з389499 0.4 1017263
06:00+3зюз389520 0.0 1017226
09:00+7зсз4669100 0.0 1017660
12:00+10з57455 0.0 10181911
15:00+11з794877 0.1 10171934
18:00+9з6860100 0.8 10171344
21:00+5з388080 1.1 1018206